"TOA5","AWS1","CR1000","7964","CR1000.Std.14","CPU:AWS1_114.CR1","64363","TBL110"
"TIMESTAMP","RECORD","Wind_spd_WVc(1)","Wind_spd_WVc(2)","Air_Temp_Avg","Humidity_Avg","SW_upper_Wm2_Avg","Rain_Tot","Press_Avg","Issui_Tot","Depth_cm","SR50A_Raw","Quality","Ground_Temp_Avg(1)","Ground_Temp_Avg(2)","SW_lower_Wm2_Avg","Albedo_Avg","SWC_per(1)","SWC_per(2)","Period(1)","Period(2)"
"TS","RN","","","","","","","","","","","","","","","","","","",""
"","","WVc","WVc","Avg","Avg","Avg","Tot","Avg","Tot","Smp","Smp","Smp","Avg","Avg","Avg","Avg","Smp","Smp","Smp","Smp"
"2018-08-10 00:00:00",353149,0.072,136.3,19.57,100,0,0,860.0369,0,2.759,3.045,209,22.47,21.9,0.2274501,0,30.73,39.34,28.04,30.52
"2018-08-10 00:10:00",353150,0,0,19.54,100,0,0,860.0158,0,2.829,3.045,213,22.47,21.9,0.2274502,0,30.73,39.34,28.04,30.52
"2018-08-10 00:20:00",353151,0.179,170.8,19.44,100,0,0,859.8263,0,2.772,3.046,203,22.47,21.9,0.2274502,0,30.73,39.34,28.04,30.52
"2018-08-10 00:30:00",353152,0.217,300.6,19.36,100,0,0,859.8284,0,3.359,3.041,228,22.5,21.9,0.2274502,0,30.73,39.34,28.04,30.52
"2018-08-10 00:40:00",353153,0.004,333.4,19.39,100,0,0,859.8242,0,2.876,3.045,213,22.39,21.9,0.2274502,0,30.73,39.34,28.04,30.52
"2018-08-10 00:50:00",353154,0.002,239.1,19.36,100,0,0,859.8242,0,2.979,3.044,218,22.38,21.9,0.2274502,0,30.73,39.34,28.04,30.52
"2018-08-10 01:00:00",353155,0,0,19.41,100,0,0,859.8453,0,3.29,3.041,227,22.39,21.9,0.2274502,0,30.73,39.34,28.04,30.52
"2018-08-10 01:10:00",353156,0,0,19.42,100,0,0,859.9505,0,2.669,3.047,204,22.42,21.9,0.2274502,0,30.73,39.34,28.04,30.52
"2018-08-10 01:20:00",353157,0,160.3,19.43,100,0,0,859.9611,0,2.772,3.046,209,22.42,21.9,0.2274502,0,30.77,39.34,28.05,30.52
"2018-08-10 01:30:00",353158,0,0,19.39,100,0,0,860.0474,0,2.796,3.046,208,22.34,21.9,0.1326793,0,30.77,39.34,28.05,30.52
"2018-08-10 01:40:00",353159,0.212,123,19.29,100,0,0,860.0769,0,2.969,3.045,213,22.31,21.9,0.1137251,0,30.77,39.34,28.05,30.52
"2018-08-10 01:50:00",353160,0.284,131.4,19.21,100,0,0,860.0726,0,3.049,3.044,218,22.33,21.9,0.1364701,0,30.77,39.34,28.05,30.52
"2018-08-10 02:00:00",353161,0.013,132.7,19.27,100,0,0,860.0769,0,3.005,3.044,219,22.33,21.9,0.227448,0,30.77,39.34,28.05,30.52
"2018-08-10 02:10:00",353162,0.006,146.9,19.3,100,0,0,860.0895,0,3.36,3.041,229,22.33,21.9,0.2274478,0,30.73,39.34,28.04,30.52
"2018-08-10 02:20:00",353163,0.154,171.8,19.39,100,0.01179485,0,860.2327,0,3.093,3.042,205,22.32,21.9,0.3487555,0.145,30.77,39.34,28.05,30.52
"2018-08-10 02:30:00",353164,0.099,56.97,19.9,100,0.4521364,0,860.3002,0,3.043,3.04,205,22.25,21.9,0.9514984,2.429,30.77,39.39,28.05,30.53
"2018-08-10 02:40:00",353165,0.002,77.15,20.03,100,0.094359,0,860.3234,0,2.836,3.042,205,22.23,21.9,0.5003902,1.173,30.77,39.39,28.05,30.53
"2018-08-10 02:50:00",353166,0,0,19.91,100,0,0,860.3297,0,2.882,3.042,205,22.25,21.93,0.2274502,0,30.77,39.39,28.05,30.53
"2018-08-10 03:00:00",353167,0,0,19.86,100,0,0,860.3297,0,3.056,3.041,215,22.25,21.93,0.2274502,0,30.77,39.39,28.05,30.53
"2018-08-10 03:10:00",353168,0.001,79.24,19.9,100,0,0,860.3297,0,2.882,3.042,209,22.25,21.94,0.2274502,0,30.77,39.39,28.05,30.53
"2018-08-10 03:20:00",353169,0,0,19.94,100,0,0,860.3297,0,3.066,3.04,214,22.21,21.92,0.2274502,0,30.82,39.39,28.06,30.53
"2018-08-10 03:30:00",353170,0,0,19.92,100,0,0,860.3297,0,3.192,3.039,218,22.18,21.86,0.2274502,0,30.82,39.39,28.06,30.53
"2018-08-10 03:40:00",353171,0,0,19.95,100,0,0,860.3297,0,3.216,3.039,224,22.17,21.81,0.2274502,0,30.82,39.39,28.06,30.53
"2018-08-10 03:50:00",353172,0,0,19.97,100,0,0,860.3297,0,3.123,3.039,218,22.12,21.81,0.2274502,0,30.82,39.39,28.06,30.53
"2018-08-10 04:00:00",353173,0,0,20.13,100,0,0,860.3276,0,2.996,3.04,210,22.12,21.81,0.253986,0,30.82,39.39,28.06,30.53
"2018-08-10 04:10:00",353174,0,0,20.03,100,0,0,860.3254,0,3.066,3.04,219,22.13,21.8,0.2160777,0,30.82,39.39,28.06,30.53
"2018-08-10 04:20:00",353175,0,0,20.01,100,0,0,860.3276,0,2.939,3.041,205,22.14,21.81,0.2274502,0,30.82,39.39,28.06,30.53
"2018-08-10 04:30:00",353176,0,0,20.11,100,0,0,860.3297,0,2.985,3.041,205,22.08,21.81,0.2274502,0,30.77,39.39,28.05,30.53
"2018-08-10 04:40:00",353177,0,0,19.95,100,0,0,860.3297,0,3.344,3.038,214,22.03,21.81,0.2274499,0,30.77,39.39,28.05,30.53
"2018-08-10 04:50:00",353178,0.042,47.18,19.9,100,0,0,860.3297,0,2.954,3.042,204,22.03,21.81,0.1137236,0,30.82,39.39,28.06,30.53
"2018-08-10 05:00:00",353179,0,0,19.91,100,0.1572624,0,860.336,0,3.172,3.039,218,22.04,21.81,0.1326775,0.295,30.82,39.39,28.06,30.53
"2018-08-10 05:10:00",353180,0,0,19.95,100,1.596216,0,860.3549,0,3.034,3.041,209,22.06,21.81,0.2577727,0.2,30.82,39.39,28.06,30.53
"2018-08-10 05:20:00",353181,0,0,19.93,100,3.326132,0,860.3739,0,3.033,3.041,214,22.07,21.81,0.4283615,0.122,30.77,39.39,28.05,30.53
"2018-08-10 05:30:00",353182,0,0,19.9,100,5.488536,0,860.5023,0,2.94,3.041,205,22.07,21.83,0.7164661,0.13,30.82,39.39,28.06,30.53
"2018-08-10 05:40:00",353183,0,0,19.95,100,9.644184,0,860.4897,0,3.011,3.041,205,22.03,21.83,1.277499,0.133,30.82,39.39,28.06,30.53
"2018-08-10 05:50:00",353184,0,0,19.96,100,21.70234,0,860.5276,0,3.044,3.04,210,22.02,21.84,3.320737,0.152,30.82,39.44,28.06,30.54
"2018-08-10 06:00:00",353185,0.246,258.5,20.07,100,34.21284,0,860.5234,0,2.595,3.045,204,22.01,21.85,5.163093,0.151,30.82,39.44,28.06,30.54
"2018-08-10 06:10:00",353186,0.347,353.7,19.6,100,25.42579,0,860.475,0,2.646,3.047,204,22.02,21.8,3.343512,0.131,30.82,39.44,28.06,30.54
"2018-08-10 06:20:00",353187,0.14,294.1,19.31,100,31.72035,0,860.5781,0,2.876,3.045,205,21.97,21.73,4.302598,0.136,30.86,39.44,28.08,30.54
"2018-08-10 06:30:00",353188,0.102,331.1,19.46,100,49.84467,0,860.5823,0,2.497,3.048,209,21.95,21.69,7.748391,0.154,30.82,39.44,28.06,30.54
"2018-08-10 06:40:00",353189,0,21.19,19.66,100,58.03016,0,860.5823,0,2.459,3.047,210,21.96,21.69,8.555819,0.144,30.82,39.44,28.06,30.54
"2018-08-10 06:50:00",353190,0.022,30.11,19.7,100,42.17043,0,860.5781,0,2.171,3.05,203,21.97,21.69,5.568713,0.131,30.82,39.44,28.06,30.54
"2018-08-10 07:00:00",353191,0.172,13.65,19.57,100,44.19141,0,860.5823,0,2.255,3.051,215,21.98,21.71,5.602847,0.125,30.86,39.44,28.08,30.54
"2018-08-10 07:10:00",353192,0.097,341.7,19.45,100,60.81439,0,860.5823,0,2.034,3.052,204,21.98,21.72,7.926637,0.128,30.82,39.44,28.06,30.54
"2018-08-10 07:20:00",353193,0.211,354.9,19.54,100,103.2642,0,860.5823,0,2.138,3.051,202,21.98,21.72,15.4325,0.146,30.82,39.44,28.06,30.54
"2018-08-10 07:30:00",353194,0.252,340.9,19.7,100,101.07,0,860.5823,0,2.182,3.049,203,21.98,21.72,14.69702,0.145,30.86,39.44,28.08,30.54
"2018-08-10 07:40:00",353195,0.016,354.6,20.2,100,127.2376,0,860.5971,0,1.566,3.052,202,21.98,21.72,18.98426,0.149,30.86,39.44,28.08,30.54
"2018-08-10 07:50:00",353196,0.214,3.745,20.54,99.8,130.1308,0,860.5823,0,1.36,3.054,200,21.97,21.71,19.25334,0.147,30.82,39.44,28.06,30.54
"2018-08-10 08:00:00",353197,0.108,293.8,20.73,95.9,152.9459,0,860.595,0,1.46,3.051,200,21.96,21.71,22.63854,0.148,30.82,39.44,28.06,30.54
"2018-08-10 08:10:00",353198,0.188,34.01,20.78,95.9,163.8672,0,860.6224,0,1.426,3.052,222,21.95,21.71,24.72717,0.151,30.86,39.44,28.08,30.54
"2018-08-10 08:20:00",353199,0.114,323,20.91,98.2,145.3233,0,860.7067,0,1.027,3.055,204,21.93,21.71,21.22032,0.146,30.86,39.44,28.08,30.54
"2018-08-10 08:30:00",353200,0.293,62.09,20.76,100,148.948,0,860.732,0,1.387,3.052,212,21.92,21.7,22.0423,0.148,30.86,39.44,28.08,30.54
"2018-08-10 08:40:00",353201,0.26,20.91,20.75,100,167.272,0,860.7572,0,1.755,3.048,211,21.92,21.7,24.95724,0.149,30.82,39.44,28.06,30.54
"2018-08-10 08:50:00",353202,0.166,2.036,21.1,95.9,164.847,0,860.8351,0,1.667,3.048,251,21.94,21.7,23.70209,0.144,30.86,39.44,28.08,30.54
"2018-08-10 09:00:00",353203,0.159,10.17,21.06,96,174.4754,0,861.0163,0,2.083,3.044,258,21.96,21.69,25.51348,0.146,30.82,39.44,28.06,30.54
"2018-08-10 09:10:00",353204,0.203,347.3,21.29,95.6,256.133,0,861.0858,0,1.846,3.044,249,21.96,21.7,39.11393,0.153,30.82,39.44,28.06,30.54
"2018-08-10 09:20:00",353205,0.232,290.2,21.66,88.6,315.1472,0,861.0879,0,0.78,3.052,221,21.93,21.69,46.79375,0.149,30.82,39.44,28.06,30.54
"2018-08-10 09:30:00",353206,0.263,11.69,21.76,85,256.8458,0,861.0668,0,1.377,3.047,230,21.93,21.69,37.54107,0.146,30.82,39.44,28.06,30.54
"2018-08-10 09:40:00",353207,0.536,49.57,21.68,85.8,243.5182,0,861.0541,0,1.575,3.044,251,21.96,21.61,36.33005,0.149,30.82,39.44,28.06,30.54
"2018-08-10 09:50:00",353208,0.43,41.5,21.96,81.5,228.0574,0,861.0247,0,0.51,3.054,229,21.98,21.6,32.63073,0.143,30.82,39.44,28.06,30.54
"2018-08-10 10:00:00",353209,0.312,148.4,21.82,84.7,188.2673,0,860.873,0,2.107,3.04,229,21.92,21.59,26.81644,0.142,30.82,39.44,28.06,30.54
"2018-08-10 10:10:00",353210,0.069,96.4,21.93,84.2,175.7359,0,860.9446,0,2.306,3.037,224,21.91,21.58,25.07625,0.142,30.82,39.44,28.06,30.54
"2018-08-10 10:20:00",353211,0.476,27.85,22.65,79.75,733.753,0,861.0352,0,2.539,3.028,203,22.02,21.58,110.3279,0.15,30.82,39.39,28.06,30.53
"2018-08-10 10:30:00",353212,0.216,97.6,23.34,77.45,335.7565,0,860.991,0,2.942,3.025,252,22.03,21.56,46.31853,0.136,30.82,39.39,28.06,30.53
"2018-08-10 10:40:00",353213,0.22,19.59,22.92,77.32,382.1786,0,860.9384,0,2.044,3.035,246,22.07,21.56,56.09317,0.141,30.77,39.39,28.05,30.53
"2018-08-10 10:50:00",353214,0.438,2.582,23.49,75.31,691.2434,0,860.8351,0,0.974,3.042,211,22.06,21.55,102.4236,0.143,30.82,39.39,28.06,30.53
"2018-08-10 11:00:00",353215,0.462,6.578,23.06,76.59,384.701,0,860.8331,0,-1.216,3.066,206,22.09,21.54,54.33741,0.138,30.73,39.39,28.04,30.53
"2018-08-10 11:10:00",353216,0.876,28.94,23.33,74.43,830.7869,0,860.6287,0,1.761,3.035,222,22.09,21.51,122.8306,0.141,30.77,39.39,28.05,30.53
"2018-08-10 11:20:00",353217,0.452,45.22,24.18,70.84,879.257,0,860.5803,0,-0.352,3.051,205,22.12,21.51,133.8051,0.148,30.77,39.34,28.05,30.52
"2018-08-10 11:30:00",353218,0.752,11.39,24.61,66.09,1007.688,0,860.3655,0,0.135,3.045,221,22.16,21.5,149.4033,0.146,30.68,39.34,28.02,30.52
"2018-08-10 11:40:00",353219,0.369,53.05,24.46,66.78,625.4341,0,860.3297,0,2.619,3.019,225,22.16,21.51,91.04419,0.136,30.68,39.34,28.02,30.52
"2018-08-10 11:50:00",353220,0.545,355.8,25.35,64.37,1085.754,0,860.3297,0,0.369,3.037,204,22.23,21.5,167.1707,0.153,30.64,39.34,28.01,30.52
"2018-08-10 12:00:00",353221,0.379,121.5,26.04,60.6,986.6154,0,860.2813,0,0.56,3.033,225,22.27,21.5,149.2764,0.145,30.59,39.34,27.99,30.52
"2018-08-10 12:10:00",353222,0.41,109.4,25.39,63.18,649.6775,0,860.0621,0,1.761,3.022,201,22.3,21.49,95.30943,0.129,30.64,39.34,28.01,30.52
"2018-08-10 12:20:00",353223,0.402,153,26.69,59.85,1096.189,0,859.8684,0,1.976,3.014,240,22.39,21.48,173.2971,0.158,30.55,39.29,27.98,30.5
"2018-08-10 12:30:00",353224,0.415,140.2,27.31,58.19,1064.925,0,859.8242,0,2.252,3.01,233,22.47,21.49,165.3593,0.155,30.55,39.29,27.98,30.5
"2018-08-10 12:40:00",353225,0.455,197.8,26.79,59.39,889.0641,0,859.7379,0,0.155,3.032,217,22.53,21.48,132.458,0.139,30.5,39.24,27.97,30.49
"2018-08-10 12:50:00",353226,0.542,346.6,26.55,59.36,1049.764,0,859.5714,0,1.356,3.021,281,22.63,21.46,159.9108,0.151,30.5,39.24,27.97,30.49
"2018-08-10 13:00:00",353227,0.384,328.2,26.43,59.78,518.8531,0,859.5714,0,-2.289,3.062,196,22.7,21.45,66.19499,0.109,30.46,39.24,27.95,30.49
"2018-08-10 13:10:00",353228,0.336,11.68,25.14,63.7,283.7338,0,859.5714,0,-1.062,3.054,195,22.81,21.39,32.48272,0.11,30.41,39.19,27.94,30.48
"2018-08-10 13:20:00",353229,0.122,187.4,25.61,63.65,689.2522,0,859.5967,0,0.292,3.035,202,22.9,21.39,105.5442,0.146,30.37,39.19,27.93,30.48
"2018-08-10 13:30:00",353230,0.589,43.59,26.39,59.89,912.2238,0,859.5819,0,3.177,3.005,277,23,21.51,141.7107,0.151,30.37,39.19,27.93,30.48
"2018-08-10 13:40:00",353231,0.304,140.2,26.51,57.91,569.4716,0,859.5714,0,0.904,3.03,224,23.1,21.5,79.115,0.122,30.28,39.14,27.9,30.46
"2018-08-10 13:50:00",353232,0.337,122.2,26.56,58.18,629.2401,0,859.5482,0,0.617,3.029,230,23.19,21.49,91.34188,0.133,30.37,39.14,27.93,30.46
"2018-08-10 14:00:00",353233,0.241,109,25.83,61.37,450.787,0,859.4092,0,2.66,3.013,217,23.23,21.51,62.06008,0.119,30.37,39.14,27.93,30.46
"2018-08-10 14:10:00",353234,0.354,211.2,26.73,58.8,843.0831,0,859.3292,0,-2.283,3.056,209,23.32,21.47,118.009,0.138,30.33,39.09,27.91,30.45
"2018-08-10 14:20:00",353235,0.514,18.51,26.87,56.17,841.9925,0,859.2028,0,1.26,3.02,258,23.35,21.46,105.9193,0.126,30.28,39.09,27.9,30.45
"2018-08-10 14:30:00",353236,0.272,165,26.81,58.17,376.7421,0,859.2239,0,0.814,3.03,218,23.42,21.45,40.37977,0.1,30.33,39.14,27.91,30.46
"2018-08-10 14:40:00",353237,0.251,225.3,26.22,58.98,347.1942,0,859.2302,0,-1.71,3.055,191,23.5,21.45,38.13562,0.103,30.28,39.09,27.9,30.45
"2018-08-10 14:50:00",353238,0.228,212,25.7,61.53,182.4718,0,859.304,0,-1.375,3.054,195,23.55,21.48,20.14071,0.112,30.28,39.09,27.9,30.45
"2018-08-10 15:00:00",353239,0.47,165.5,25.9,62.27,532.5759,0,859.2239,0,0.05,3.039,203,23.62,21.48,43.20426,0.092,30.28,39.09,27.9,30.45
"2018-08-10 15:10:00",353240,0.142,170.9,25.57,63.16,83.48821,0,859.3145,0,1.833,3.025,290,23.67,21.48,6.648188,0.077,30.28,39.09,27.9,30.45
"2018-08-10 15:20:00",353241,0.059,73.24,25.05,66.74,88.40889,0,859.3187,0,1.238,3.032,209,23.74,21.53,9.316892,0.097,30.24,39.09,27.89,30.45
"2018-08-10 15:30:00",353242,0.286,8.92,24.92,67.65,212.3593,0,859.325,0,-1.839,3.063,202,23.75,21.58,30.24813,0.142,30.28,39.04,27.9,30.44
"2018-08-10 15:40:00",353243,0.356,68.24,24.99,67.7,169.863,0,859.3671,0,2.836,3.016,290,23.85,21.57,24.29337,0.14,30.24,39.04,27.89,30.44
"2018-08-10 15:50:00",353244,0.266,351.4,25.41,66.26,193.5165,0,859.5693,0,1.337,3.029,234,23.85,21.58,28.67941,0.148,30.28,39.04,27.9,30.44
"2018-08-10 16:00:00",353245,0.069,235.2,25.18,68.64,133.6933,0,859.603,0,0.503,3.039,224,23.84,21.63,17.21296,0.122,30.24,39.04,27.89,30.44
"2018-08-10 16:10:00",353246,0.084,234.6,24.66,71.26,93.61709,0,859.5861,0,0.616,3.041,217,23.84,21.65,10.42405,0.111,30.28,39.04,27.9,30.44
"2018-08-10 16:20:00",353247,0.06,210.4,24.3,73.29,56.27503,0,859.7736,0,0.925,3.04,209,23.85,21.67,4.594309,0.081,30.28,39.04,27.9,30.44
"2018-08-10 16:30:00",353248,0.097,252.2,23.91,75.41,90.71554,0,859.8137,0,1.019,3.04,201,23.87,21.71,10.7429,0.117,30.28,39.04,27.9,30.44
"2018-08-10 16:40:00",353249,0.133,175,23.69,76.99,75.53632,0,859.82,0,0.82,3.043,200,23.88,21.74,9.029536,0.115,30.33,38.99,27.91,30.42
"2018-08-10 16:50:00",353250,0.042,78,23.79,77.87,168.6726,0,859.8137,0,1.421,3.035,199,23.91,21.73,24.92445,0.147,30.28,39.04,27.9,30.44
"2018-08-10 17:00:00",353251,0.174,27.05,23.74,78.56,72.75013,0,859.782,0,0.751,3.045,201,23.92,21.72,7.84317,0.105,30.33,39.04,27.91,30.44
"2018-08-10 17:10:00",353252,0.094,0.034,23.15,81.5,36.51644,0,859.8115,0,0.452,3.051,208,23.94,21.72,2.414728,0.06,30.33,39.04,27.91,30.44
"2018-08-10 17:20:00",353253,0.126,94.6,22.65,84.7,6.089972,0,859.8242,0,-1.184,3.069,183,23.94,21.76,0.00758149,0,30.33,39.04,27.91,30.44
"2018-08-10 17:30:00",353254,0.102,265.4,22.01,91.7,26.05784,0.5,859.8347,0,-0.632,3.068,191,23.92,21.8,2.604206,0.099,30.33,39.04,27.91,30.44
"2018-08-10 17:40:00",353255,0.036,1.765,21.41,100,18.01429,1.5,859.8663,0,3.613,3.028,305,23.88,21.87,2.263076,0.126,30.33,39.04,27.91,30.44
"2018-08-10 17:50:00",353256,0.076,293.6,21.07,100,13.9375,3,860.1338,0,1.17,3.054,196,23.94,21.88,1.683117,0.121,30.41,39.04,27.94,30.44
"2018-08-10 18:00:00",353257,0.152,223.7,20.7,100,18.10902,2,860.2644,0,1.772,3.05,216,23.93,21.87,2.513318,0.142,31.81,39.19,28.36,30.48
"2018-08-10 18:10:00",353258,0.084,315.7,20.54,100,25.94479,0,860.3297,0,0.839,3.059,200,23.88,21.85,3.86286,0.149,32.08,39.19,28.44,30.48
"2018-08-10 18:20:00",353259,0,0,20.48,100,23.23198,0,860.3297,0,0.528,3.062,200,23.84,21.86,3.771882,0.162,32.22,39.19,28.48,30.48
"2018-08-10 18:30:00",353260,0,0,20.54,100,6.947185,0,860.3297,0,0.642,3.06,206,23.85,21.96,1.637641,0.262,32.31,39.19,28.51,30.48
"2018-08-10 18:40:00",353261,0.165,213.3,20.61,100,2.020856,0,860.3297,0,0.688,3.06,209,23.73,21.98,1.012153,0.556,32.35,39.19,28.52,30.48
"2018-08-10 18:50:00",353262,0.008,31.69,20.5,100,1.242394,0,860.3865,0,0.759,3.06,205,23.77,21.97,0.7126772,0.722,32.35,39.19,28.52,30.48
"2018-08-10 19:00:00",353263,0.039,2.046,20.35,100,0.1533334,0,860.5823,0,0.671,3.062,200,23.73,21.95,0.4397365,1.382,32.35,39.19,28.52,30.48
"2018-08-10 19:10:00",353264,0,0,20.16,100,0,0,860.5781,0,1.259,3.057,210,23.71,22.01,0.4700576,0,32.35,39.19,28.52,30.48
"2018-08-10 19:20:00",353265,0.015,7.407,20.13,100,0,0.5,860.5823,0,-0.239,3.071,194,23.7,22.01,0.6709729,0,32.31,39.19,28.51,30.48
"2018-08-10 19:30:00",353266,0.172,52.42,20.19,100,0,0,860.7088,0,-0.191,3.071,197,23.65,22.03,0.6823417,0,32.35,39.19,28.52,30.48
"2018-08-10 19:40:00",353267,0,81,20.16,100,0.007863167,0,860.8984,0,-0.158,3.07,197,23.59,22.07,0.7050877,0.096,32.31,39.24,28.51,30.49
"2018-08-10 19:50:00",353268,0,0,20.16,100,0.1100851,0,861.0879,0,-0.551,3.074,199,23.62,22.07,0.6823474,1.35,32.31,39.24,28.51,30.49
"2018-08-10 20:00:00",353269,0,0,20.21,100,0.07470083,0,861.0963,0,1.06,3.058,220,23.57,22.07,0.6633953,0.884,32.26,39.24,28.5,30.49
"2018-08-10 20:10:00",353270,0.036,53.62,20.22,100,0.0157265,0,861.3239,0,0.796,3.061,203,23.52,22.07,0.4435277,0.193,32.26,39.24,28.5,30.49
"2018-08-10 20:20:00",353271,0.186,45.64,20.11,100,0,0,861.3407,0,0.947,3.06,208,23.51,22.06,0.4132012,0,32.22,39.24,28.48,30.49
"2018-08-10 20:30:00",353272,0.533,12.92,19.98,100,0.01572651,0,861.3386,0,0.395,3.066,202,23.48,22.04,0.7960756,0.225,32.26,39.24,28.5,30.49
"2018-08-10 20:40:00",353273,0.188,209.2,19.99,100,0.01572651,1,861.4354,0,1.224,3.058,197,23.4,22.03,0.6861414,0.193,32.22,39.24,28.48,30.49
"2018-08-10 20:50:00",353274,0.046,40.24,19.99,100,0.09042741,4,861.5934,0,-2.402,3.093,195,23.42,22.04,0.3525478,0.884,33.22,39.24,28.78,30.49
"2018-08-10 21:00:00",353275,0,0,19.97,100,0.05111115,0.5,861.5934,0,-0.79,3.077,220,23.42,22.06,0.2274502,0.209,35.23,39.44,29.36,30.54
"2018-08-10 21:10:00",353276,0.058,356,19.87,100,0,0,861.5955,0,-0.489,3.075,210,23.4,22.1,0.3222211,0,35.37,39.53,29.41,30.57
"2018-08-10 21:20:00",353277,0,0,19.91,100,0.01179488,0,861.6355,0,-0.48,3.074,211,23.35,22.11,0.6141155,0.145,35.37,39.48,29.41,30.56
"2018-08-10 21:30:00",353278,0,0,19.89,100,0,0,861.6334,0,-0.358,3.074,220,23.27,22.14,0.3032643,0,35.32,39.53,29.39,30.57
"2018-08-10 21:40:00",353279,0.075,170.6,19.85,100,0,0,861.5934,0,-0.072,3.071,225,23.27,22.15,0.4852156,0,35.28,39.53,29.38,30.57
"2018-08-10 21:50:00",353280,0.183,27.53,19.8,100,0.01965796,0.5,861.5997,0,-1.109,3.081,236,23.19,22.15,0.4473129,0.193,35.23,39.53,29.36,30.57
"2018-08-10 22:00:00",353281,0.029,348.2,19.78,100,0.03145279,0,861.5955,0,-0.888,3.08,250,23.17,22.16,0.2577756,0.225,35.23,39.53,29.36,30.57
"2018-08-10 22:10:00",353282,0.053,267.3,19.66,100,0,0,861.5934,0,-0.625,3.077,233,23.2,22.16,0.4548998,0,35.18,39.53,29.35,30.57
"2018-08-10 22:20:00",353283,0.036,18.72,19.7,100,0,0.5,861.6081,0,-2.362,3.094,205,23.07,22.16,0.5724161,0,35.18,39.53,29.35,30.57
"2018-08-10 22:30:00",353284,0.016,69.55,19.67,100,0.01965814,0.5,861.6861,0,-1.924,3.09,200,23.08,22.16,0.3487569,0.177,35.14,39.58,29.34,30.59
"2018-08-10 22:40:00",353285,0.067,67.96,19.67,100,0.007863254,0.5,861.7892,0,-1.581,3.086,229,23.11,22.16,0.3752928,0.096,35.32,39.58,29.39,30.59
"2018-08-10 22:50:00",353286,0.086,103.9,19.73,100,0.007863254,0,861.8441,0,1.78,3.054,358,23.09,22.16,0.2994761,0.064,35.51,39.58,29.45,30.59
"2018-08-10 23:00:00",353287,0.081,69.6,19.58,100,0.01179488,0,861.8461,0,-1.175,3.083,226,23.04,22.16,0.2577769,0.096,35.66,39.58,29.49,30.59
"2018-08-10 23:10:00",353288,0,0,19.57,100,0,0,861.8461,0,-1.255,3.084,239,23.03,22.16,0.3260119,0,35.7,39.58,29.5,30.59
"2018-08-10 23:20:00",353289,0,0,19.57,100,0,0,861.8777,0,-1.025,3.082,260,23.03,22.16,0.5041813,0,35.75,39.63,29.51,30.6
"2018-08-10 23:30:00",353290,0,0,19.51,100,0,0,861.8461,0,-1.462,3.086,217,22.94,22.16,0.5686255,0,35.75,39.63,29.51,30.6
"2018-08-10 23:40:00",353291,0,0,19.58,100,0,0,861.8567,0,-1.876,3.09,196,22.92,22.16,0.6482331,0,35.8,39.63,29.53,30.6
"2018-08-10 23:50:00",353292,0,0,19.56,100,0,0,861.8483,0,-1.876,3.09,200,22.94,22.16,0.6823505,0,35.8,39.63,29.53,30.6
